Regional Weather Roundup
Issued by NWS

Home | Current Version | Previous Version | Graphics & Text | Print | Product List | Glossary On
Versions: 1 2 3 4 5 6 7 8 9 10 11 12 13 14 15 16 17 18 19 20 21 22 23 24 25 26 27 28 29 30 31 32 33 34 35 36 37 38 39 40 41 42 43 44 45 46 47 48 49 50
000
ASUS43 KBIS 051810
RWRND

NORTH DAKOTA REGIONAL WEATHER ROUNDUP
NATIONAL WEATHER SERVICE BISMARCK ND
100 PM CDT THU MAY 05 2016

NOTE: "FAIR" INDICATES FEW OR NO CLOUDS BELOW 12,000 FEET WITH NO
SIGNIFICANT WEATHER AND/OR OBSTRUCTIONS TO VISIBILITY.


NDZ001>003-009>011-017-051900-
NORTHWEST NORTH DAKOTA

CITY           SKY/WX    TMP DP  RH WIND       PRES   REMARKS
WILLISTON      SUNNY     85  45  24 S9        29.82F
6HR MIN TEMP:  49; 6HR MAX TEMP:  85;

MINOT          SUNNY     91  42  18 SW14      29.80F
MINOT AFB      SUNNY     87  44  22 SW13      29.79F
$$

NDZ018>021-031>035-040>046-051900-
SOUTHWEST NORTH DAKOTA

CITY           SKY/WX    TMP DP  RH WIND       PRES   REMARKS
BISMARCK       SUNNY     84  46  26 S12G20    29.87F
6HR MIN TEMP:  50; 6HR MAX TEMP:  84;

DICKINSON      SUNNY     81  34  18 VRB3      29.86F
GARRISON         N/A     85  45  24 SW13      29.85F
6HR MIN TEMP:  52; 6HR MAX TEMP:  85;

HETTINGER ARPT SUNNY     78  46  32 SE6       29.91F
$$

NDZ004>008-012>016-024-026-027-054-051900-
NORTHEAST NORTH DAKOTA

CITY           SKY/WX    TMP DP  RH WIND       PRES   REMARKS
GRAND FORKS    MOSUNNY   90  41  18 W20G26    29.79F
GRND FRKS AFB  SUNNY     90  39  17 W20G30    29.80F
DEVILS LAKE    SUNNY     84  43  23 W16       29.83F
$$

NDZ022-023-025-028>030-036>039-047>053-051900-
SOUTHEAST NORTH DAKOTA

CITY           SKY/WX    TMP DP  RH WIND       PRES   REMARKS
FARGO          SUNNY     87  44  22 S8        29.85F
6HR MIN TEMP:  54; 6HR MAX TEMP:  87;

JAMESTOWN      SUNNY     85  37  18 SW14G28   29.86F
$$





USA.gov is the U.S. government's official web portal to all federal, state and local government web resources and services.